Year,Month,Day,Hour,Minute,Value (Times are PST for windgust in km/hr)
2017,06,08,00,27,1.60
2017,06,08,11,44,1.60
2017,06,08,11,45,8.10
2017,06,08,11,46,11.30
2017,06,08,11,47,4.80
2017,06,08,11,48,4.80
2017,06,08,11,49,8.10
2017,06,08,11,50,6.40
2017,06,08,11,51,9.60
2017,06,08,11,52,1.60
2017,06,08,11,53,4.80
2017,06,08,11,54,4.80
2017,06,08,11,55,4.80
2017,06,08,11,56,9.60
2017,06,08,11,57,11.30
2017,06,08,11,58,11.30
2017,06,08,11,59,6.40
2017,06,08,12,00,6.40
2017,06,08,12,01,6.40
2017,06,08,12,02,8.10
2017,06,08,12,03,8.10
2017,06,08,12,04,8.10
2017,06,08,12,05,9.60
2017,06,08,12,06,4.80
2017,06,08,12,07,3.20
2017,06,08,12,08,1.60
2017,06,08,12,09,6.40
2017,06,08,12,10,9.60
2017,06,08,12,11,8.10
2017,06,08,12,12,6.40
2017,06,08,12,13,4.80
2017,06,08,12,14,6.40
2017,06,08,12,15,8.10
2017,06,08,12,16,8.10
2017,06,08,12,17,4.80
2017,06,08,12,18,9.60
2017,06,08,12,19,4.80
2017,06,08,12,20,6.40
2017,06,08,12,21,9.60
2017,06,08,12,22,4.80
2017,06,08,12,23,6.40
2017,06,08,12,24,12.90
2017,06,08,12,25,6.40
2017,06,08,12,27,6.40
2017,06,08,12,28,4.80
2017,06,08,12,30,6.40
2017,06,08,12,31,6.40
2017,06,08,12,32,3.20
2017,06,08,12,34,8.10
2017,06,08,12,35,6.40
2017,06,08,12,36,8.10
2017,06,08,12,37,6.40
2017,06,08,12,38,6.40
2017,06,08,12,40,4.80
2017,06,08,12,43,6.40
2017,06,08,12,44,6.40
2017,06,08,12,45,11.30
2017,06,08,12,46,4.80
2017,06,08,12,47,1.60
2017,06,08,12,53,6.40
2017,06,08,12,54,4.80
2017,06,08,12,55,4.80
2017,06,08,12,56,1.60
2017,06,08,12,57,3.20
2017,06,08,12,58,4.80
2017,06,08,12,59,8.10
2017,06,08,13,00,6.40
2017,06,08,13,01,1.60
2017,06,08,13,04,16.10
2017,06,08,13,05,12.90
2017,06,08,13,06,9.60
2017,06,08,13,07,4.80
2017,06,08,13,08,4.80
2017,06,08,13,09,9.60
2017,06,08,13,10,9.60
2017,06,08,13,11,3.20
2017,06,08,13,12,12.90
2017,06,08,13,13,9.60
2017,06,08,13,14,3.20
2017,06,08,13,15,1.60
2017,06,08,13,16,3.20
2017,06,08,13,17,6.40
2017,06,08,13,18,6.40
2017,06,08,13,19,8.10
2017,06,08,13,20,9.60
2017,06,08,13,21,12.90
2017,06,08,13,22,8.10
2017,06,08,13,23,11.30
2017,06,08,13,24,17.70
2017,06,08,13,25,17.70
2017,06,08,13,26,14.50
2017,06,08,13,27,8.10
2017,06,08,13,28,6.40
2017,06,08,13,29,9.60
2017,06,08,13,30,8.10
2017,06,08,13,31,8.10
2017,06,08,13,32,4.80
2017,06,08,13,33,9.60
2017,06,08,13,34,11.30
2017,06,08,13,35,8.10
2017,06,08,13,36,6.40
2017,06,08,13,37,11.30
2017,06,08,13,38,16.10
2017,06,08,13,39,8.10
2017,06,08,13,40,17.70
2017,06,08,13,41,20.90
2017,06,08,13,42,12.90
2017,06,08,13,43,12.90
2017,06,08,13,44,25.70
2017,06,08,13,45,22.50
2017,06,08,13,46,12.90
2017,06,08,13,47,16.10
2017,06,08,13,48,19.30
2017,06,08,13,49,17.70
2017,06,08,13,50,22.50
2017,06,08,13,51,9.60
2017,06,08,13,52,3.20
2017,06,08,13,53,8.10
2017,06,08,13,54,20.90
2017,06,08,13,55,11.30
2017,06,08,13,56,16.10
2017,06,08,13,57,17.70
2017,06,08,13,58,35.40
2017,06,08,13,59,12.90
2017,06,08,14,00,12.90
2017,06,08,14,01,6.40
2017,06,08,14,02,11.30
2017,06,08,14,03,12.90
2017,06,08,14,04,35.40
2017,06,08,14,05,20.90
2017,06,08,14,06,24.20
2017,06,08,14,07,14.50
2017,06,08,14,08,11.30
2017,06,08,14,09,9.60
2017,06,08,14,10,9.60
2017,06,08,14,11,6.40
2017,06,08,14,12,9.60
2017,06,08,14,13,6.40
2017,06,08,14,14,20.90
2017,06,08,14,15,12.90
2017,06,08,14,16,14.50
2017,06,08,14,17,19.30
2017,06,08,14,18,22.50
2017,06,08,14,19,16.10
2017,06,08,14,20,6.40
2017,06,08,14,21,20.90
2017,06,08,14,22,19.30
2017,06,08,14,23,25.70
2017,06,08,14,24,43.50
2017,06,08,14,25,9.60
2017,06,08,14,26,11.30
2017,06,08,14,27,11.30
2017,06,08,14,28,9.60
2017,06,08,14,29,14.50
2017,06,08,14,30,14.50
2017,06,08,14,31,17.70
2017,06,08,14,32,16.10
2017,06,08,14,33,22.50
2017,06,08,14,34,20.90
2017,06,08,14,35,33.80
2017,06,08,14,36,20.90
2017,06,08,14,37,8.10
2017,06,08,14,38,9.60
2017,06,08,14,39,20.90
2017,06,08,14,40,29.00
2017,06,08,14,41,14.50
2017,06,08,14,42,14.50
2017,06,08,14,43,14.50
2017,06,08,14,44,22.50
2017,06,08,14,45,11.30
2017,06,08,14,46,29.00
2017,06,08,14,47,29.00
2017,06,08,14,48,22.50
2017,06,08,14,49,11.30
2017,06,08,14,50,20.90
2017,06,08,14,51,12.90
2017,06,08,14,52,29.00
2017,06,08,14,53,16.10
2017,06,08,14,54,9.60
2017,06,08,14,55,22.50
2017,06,08,14,56,25.70
2017,06,08,14,57,29.00
2017,06,08,14,58,14.50
2017,06,08,14,59,25.70
2017,06,08,15,00,11.30
2017,06,08,15,01,8.10
2017,06,08,15,02,20.90
2017,06,08,15,03,14.50
2017,06,08,15,04,22.50
2017,06,08,15,05,20.90
2017,06,08,15,06,12.90
2017,06,08,15,07,16.10
2017,06,08,15,08,40.20
2017,06,08,15,09,35.40
2017,06,08,15,10,17.70
2017,06,08,15,11,8.10
2017,06,08,15,12,14.50
2017,06,08,15,13,22.50
2017,06,08,15,14,12.90
2017,06,08,15,15,4.80
2017,06,08,15,16,14.50
2017,06,08,15,17,11.30
2017,06,08,15,18,12.90
2017,06,08,15,19,14.50
2017,06,08,15,20,17.70
2017,06,08,15,21,40.20
2017,06,08,15,22,22.50
2017,06,08,15,23,12.90
2017,06,08,15,24,16.10
2017,06,08,15,25,20.90
2017,06,08,15,26,17.70
2017,06,08,15,27,32.20
2017,06,08,15,28,17.70
2017,06,08,15,29,29.00
2017,06,08,15,30,35.40
2017,06,08,15,31,22.50
2017,06,08,15,32,24.20
2017,06,08,15,33,14.50
2017,06,08,15,34,14.50
2017,06,08,15,35,8.10
2017,06,08,15,36,12.90
2017,06,08,15,37,11.30
2017,06,08,15,38,11.30
2017,06,08,15,39,11.30
2017,06,08,15,40,14.50
2017,06,08,15,41,27.40
2017,06,08,15,42,27.40
2017,06,08,15,43,22.50
2017,06,08,15,44,29.00
2017,06,08,15,45,22.50
2017,06,08,15,46,11.30
2017,06,08,15,47,19.30
2017,06,08,15,48,14.50
2017,06,08,15,49,30.60
2017,06,08,15,50,16.10
2017,06,08,15,51,35.40
2017,06,08,15,52,20.90
2017,06,08,15,53,22.50
2017,06,08,15,54,27.40
2017,06,08,15,55,27.40
2017,06,08,15,56,48.30
2017,06,08,15,57,20.90
2017,06,08,15,58,32.20
2017,06,08,15,59,14.50
2017,06,08,16,00,17.70
2017,06,08,16,01,12.90
2017,06,08,16,02,16.10
2017,06,08,16,03,14.50
2017,06,08,16,04,20.90
2017,06,08,16,05,30.60
2017,06,08,16,06,32.20
2017,06,08,16,07,16.10
2017,06,08,16,08,24.20
2017,06,08,16,09,20.90
2017,06,08,16,10,41.80
2017,06,08,16,11,29.00
2017,06,08,16,12,11.30
2017,06,08,16,13,19.30
2017,06,08,16,14,12.90
2017,06,08,16,15,27.40
2017,06,08,16,16,22.50
2017,06,08,16,17,22.50
2017,06,08,16,18,19.30
2017,06,08,16,19,14.50
2017,06,08,16,20,9.60
2017,06,08,16,21,14.50
2017,06,08,16,22,16.10
2017,06,08,16,23,20.90
2017,06,08,16,24,27.40
2017,06,08,16,25,35.40
2017,06,08,16,26,25.70
2017,06,08,16,27,20.90
2017,06,08,16,28,16.10
2017,06,08,16,29,25.70
2017,06,08,16,30,33.80
2017,06,08,16,31,30.60
2017,06,08,16,32,51.50
2017,06,08,16,33,32.20
2017,06,08,16,34,14.50
2017,06,08,16,35,29.00
2017,06,08,16,36,46.70
2017,06,08,16,37,33.80
2017,06,08,16,38,27.40
2017,06,08,16,39,14.50
2017,06,08,16,40,29.00
2017,06,08,16,41,24.20
2017,06,08,16,42,19.30
2017,06,08,16,43,22.50
2017,06,08,16,44,24.20
2017,06,08,16,45,17.70
2017,06,08,16,46,24.20
2017,06,08,16,47,9.60
2017,06,08,16,48,29.00
2017,06,08,16,49,35.40
2017,06,08,16,50,33.80
2017,06,08,16,51,19.30
2017,06,08,16,52,22.50
2017,06,08,16,53,22.50
2017,06,08,16,54,24.20
2017,06,08,16,55,14.50
2017,06,08,16,56,16.10
2017,06,08,16,57,20.90
2017,06,08,16,58,16.10
2017,06,08,16,59,20.90
2017,06,08,17,00,24.20
2017,06,08,17,01,20.90
2017,06,08,17,02,22.50
2017,06,08,17,03,14.50
2017,06,08,17,04,11.30
2017,06,08,17,05,12.90
2017,06,08,17,06,9.60
2017,06,08,17,07,9.60
2017,06,08,17,08,32.20
2017,06,08,17,09,29.00
2017,06,08,17,10,33.80
2017,06,08,17,11,19.30
2017,06,08,17,12,17.70
2017,06,08,17,13,22.50
2017,06,08,17,14,29.00
2017,06,08,17,15,9.60
2017,06,08,17,16,12.90
2017,06,08,17,17,8.10
2017,06,08,17,18,6.40
2017,06,08,17,19,20.90
2017,06,08,17,20,14.50
2017,06,08,17,21,27.40
2017,06,08,17,22,17.70
2017,06,08,17,23,12.90
2017,06,08,17,24,8.10
2017,06,08,17,25,16.10
2017,06,08,17,26,22.50
2017,06,08,17,27,22.50
2017,06,08,17,28,12.90
2017,06,08,17,29,19.30
2017,06,08,17,30,14.50
2017,06,08,17,31,17.70
2017,06,08,17,32,14.50
2017,06,08,17,33,17.70
2017,06,08,17,34,16.10
2017,06,08,17,35,17.70
2017,06,08,17,36,20.90
2017,06,08,17,37,16.10
2017,06,08,17,38,11.30
2017,06,08,17,39,11.30
2017,06,08,17,40,20.90
2017,06,08,17,41,20.90
2017,06,08,17,42,14.50
2017,06,08,17,43,6.40
2017,06,08,17,44,22.50
2017,06,08,17,45,19.30
2017,06,08,17,46,19.30
2017,06,08,17,47,11.30
2017,06,08,17,48,17.70
2017,06,08,17,49,22.50
2017,06,08,17,50,27.40
2017,06,08,17,51,14.50
2017,06,08,17,52,19.30
2017,06,08,17,53,24.20
2017,06,08,17,54,17.70
2017,06,08,17,55,22.50
2017,06,08,17,56,14.50
2017,06,08,17,57,24.20
2017,06,08,17,58,19.30
2017,06,08,17,59,20.90
2017,06,08,18,00,11.30
2017,06,08,18,01,12.90
2017,06,08,18,02,25.70
2017,06,08,18,03,6.40
2017,06,08,18,04,6.40
2017,06,08,18,05,9.60
2017,06,08,18,06,9.60
2017,06,08,18,07,20.90
2017,06,08,18,08,16.10
2017,06,08,18,09,14.50
2017,06,08,18,10,12.90
2017,06,08,18,11,9.60
2017,06,08,18,12,11.30
2017,06,08,18,13,17.70
2017,06,08,18,14,11.30
2017,06,08,18,15,25.70
2017,06,08,18,16,20.90
2017,06,08,18,17,12.90
2017,06,08,18,18,9.60
2017,06,08,18,19,11.30
2017,06,08,18,20,17.70
2017,06,08,18,21,14.50
2017,06,08,18,22,16.10
2017,06,08,18,23,8.10
2017,06,08,18,24,14.50
2017,06,08,18,25,14.50
2017,06,08,18,26,17.70
2017,06,08,18,27,8.10
2017,06,08,18,28,16.10
2017,06,08,18,29,27.40
2017,06,08,18,30,30.60
2017,06,08,18,31,12.90
2017,06,08,18,32,25.70
2017,06,08,18,33,8.10
2017,06,08,18,34,6.40
2017,06,08,18,35,12.90
2017,06,08,18,36,22.50
2017,06,08,18,37,11.30
2017,06,08,18,38,20.90
2017,06,08,18,39,25.70
2017,06,08,18,40,12.90
2017,06,08,18,41,11.30
2017,06,08,18,42,14.50
2017,06,08,18,43,11.30
2017,06,08,18,44,30.60
2017,06,08,18,45,16.10
2017,06,08,18,46,16.10
2017,06,08,18,47,12.90
2017,06,08,18,48,16.10
2017,06,08,18,49,16.10
2017,06,08,18,50,9.60
2017,06,08,18,51,11.30
2017,06,08,18,52,25.70
2017,06,08,18,53,16.10
2017,06,08,18,54,17.70
2017,06,08,18,55,25.70
2017,06,08,18,56,9.60
2017,06,08,18,57,9.60
2017,06,08,18,58,17.70
2017,06,08,18,59,20.90
2017,06,08,19,00,12.90
2017,06,08,19,01,12.90
2017,06,08,19,02,14.50
2017,06,08,19,03,17.70
2017,06,08,19,04,11.30
2017,06,08,19,05,11.30
2017,06,08,19,06,8.10
2017,06,08,19,07,16.10
2017,06,08,19,08,14.50
2017,06,08,19,09,8.10
2017,06,08,19,10,6.40
2017,06,08,19,11,9.60
2017,06,08,19,12,8.10
2017,06,08,19,13,24.20
2017,06,08,19,14,11.30
2017,06,08,19,15,27.40
2017,06,08,19,16,8.10
2017,06,08,19,17,8.10
2017,06,08,19,18,8.10
2017,06,08,19,19,12.90
2017,06,08,19,20,11.30
2017,06,08,19,21,6.40
2017,06,08,19,22,17.70
2017,06,08,19,23,11.30
2017,06,08,19,24,12.90
2017,06,08,19,25,16.10
2017,06,08,19,26,16.10
2017,06,08,19,27,9.60
2017,06,08,19,28,12.90
2017,06,08,19,29,6.40
2017,06,08,19,30,11.30
2017,06,08,19,31,12.90
2017,06,08,19,32,17.70
2017,06,08,19,33,22.50
2017,06,08,19,34,12.90
2017,06,08,19,35,4.80
2017,06,08,19,36,12.90
2017,06,08,19,37,9.60
2017,06,08,19,38,9.60
2017,06,08,19,39,14.50
2017,06,08,19,40,24.20
2017,06,08,19,41,19.30
2017,06,08,19,42,17.70
2017,06,08,19,43,19.30
2017,06,08,19,44,12.90
2017,06,08,19,45,17.70
2017,06,08,19,46,12.90
2017,06,08,19,47,9.60
2017,06,08,19,48,19.30
2017,06,08,19,49,16.10
2017,06,08,19,50,11.30
2017,06,08,19,51,11.30
2017,06,08,19,52,9.60
2017,06,08,19,53,12.90
2017,06,08,19,54,12.90
2017,06,08,19,55,16.10
2017,06,08,19,56,14.50
2017,06,08,19,57,20.90
2017,06,08,19,58,25.70
2017,06,08,19,59,17.70
2017,06,08,20,00,24.20
2017,06,08,20,01,8.10
2017,06,08,20,02,20.90
2017,06,08,20,03,17.70
2017,06,08,20,04,12.90
2017,06,08,20,05,11.30
2017,06,08,20,06,9.60
2017,06,08,20,07,11.30
2017,06,08,20,08,12.90
2017,06,08,20,09,16.10
2017,06,08,20,10,19.30
2017,06,08,20,11,20.90
2017,06,08,20,12,17.70
2017,06,08,20,13,9.60
2017,06,08,20,14,22.50
2017,06,08,20,15,17.70
2017,06,08,20,16,9.60
2017,06,08,20,17,14.50
2017,06,08,20,18,6.40
2017,06,08,20,19,22.50
2017,06,08,20,20,22.50
2017,06,08,20,21,20.90
2017,06,08,20,22,12.90
2017,06,08,20,23,12.90
2017,06,08,20,24,16.10
2017,06,08,20,25,8.10
2017,06,08,20,26,9.60
2017,06,08,20,27,6.40
2017,06,08,20,28,14.50
2017,06,08,20,29,6.40
2017,06,08,20,30,8.10
2017,06,08,20,31,6.40
2017,06,08,20,32,12.90
2017,06,08,20,33,14.50
2017,06,08,20,34,17.70
2017,06,08,20,35,12.90
2017,06,08,20,36,11.30
2017,06,08,20,37,9.60
2017,06,08,20,38,12.90
2017,06,08,20,39,11.30
2017,06,08,20,40,12.90
2017,06,08,20,41,9.60
2017,06,08,20,42,9.60
2017,06,08,20,43,9.60
2017,06,08,20,44,8.10
2017,06,08,20,45,20.90
2017,06,08,20,46,11.30
2017,06,08,20,47,16.10
2017,06,08,20,48,16.10
2017,06,08,20,49,8.10
2017,06,08,20,50,6.40
2017,06,08,20,51,4.80
2017,06,08,20,52,6.40
2017,06,08,20,53,8.10
2017,06,08,20,54,6.40
2017,06,08,20,55,4.80
2017,06,08,20,56,4.80
2017,06,08,20,57,8.10
2017,06,08,20,58,12.90
2017,06,08,20,59,9.60
2017,06,08,21,00,6.40
2017,06,08,21,01,3.20
2017,06,08,21,02,6.40
2017,06,08,21,03,9.60
2017,06,08,21,04,6.40
2017,06,08,21,05,4.80
2017,06,08,21,06,4.80
2017,06,08,21,07,1.60
2017,06,08,21,08,3.20
2017,06,08,21,09,6.40
2017,06,08,21,10,11.30
2017,06,08,21,11,8.10
2017,06,08,21,12,4.80
2017,06,08,21,13,3.20
2017,06,08,21,14,9.60
2017,06,08,21,15,8.10
2017,06,08,21,16,8.10
2017,06,08,21,17,12.90
2017,06,08,21,18,9.60
2017,06,08,21,19,11.30
2017,06,08,21,20,4.80
2017,06,08,21,21,9.60
2017,06,08,21,22,9.60
2017,06,08,21,23,11.30
2017,06,08,21,24,4.80
2017,06,08,21,25,12.90
2017,06,08,21,26,9.60
2017,06,08,21,27,4.80
2017,06,08,21,28,6.40
2017,06,08,21,29,6.40
2017,06,08,21,30,6.40
2017,06,08,21,31,4.80
2017,06,08,21,32,3.20
2017,06,08,21,33,1.60
2017,06,08,21,34,1.60
2017,06,08,21,35,3.20
2017,06,08,21,36,1.60
2017,06,08,21,37,3.20
2017,06,08,21,38,12.90
2017,06,08,21,39,12.90
2017,06,08,21,40,11.30
2017,06,08,21,41,4.80
2017,06,08,21,42,8.10
2017,06,08,21,43,9.60
2017,06,08,21,44,6.40
2017,06,08,21,45,4.80
2017,06,08,21,46,1.60
2017,06,08,21,48,1.60
2017,06,08,21,49,4.80
2017,06,08,21,50,3.20
2017,06,08,21,51,3.20
2017,06,08,21,52,3.20
2017,06,08,21,53,4.80
2017,06,08,21,54,4.80
2017,06,08,21,55,1.60
2017,06,08,21,56,6.40
2017,06,08,21,57,8.10
2017,06,08,21,58,8.10
2017,06,08,21,59,6.40
2017,06,08,22,00,3.20
2017,06,08,22,01,4.80
2017,06,08,22,02,8.10
2017,06,08,22,03,8.10
2017,06,08,22,04,4.80
2017,06,08,22,05,4.80
2017,06,08,22,06,6.40
2017,06,08,22,07,3.20
2017,06,08,22,12,3.20
2017,06,08,22,13,1.60
2017,06,08,22,15,4.80
2017,06,08,22,16,8.10
2017,06,08,22,17,3.20
2017,06,08,22,18,3.20
2017,06,08,22,19,3.20
2017,06,08,22,20,4.80
2017,06,08,22,21,4.80
2017,06,08,22,22,1.60
2017,06,08,22,26,1.60
2017,06,08,22,27,4.80
2017,06,08,22,28,3.20
2017,06,08,22,29,3.20
2017,06,08,22,30,11.30
2017,06,08,22,31,4.80
2017,06,08,22,32,8.10
2017,06,08,22,33,3.20
2017,06,08,22,34,9.60
2017,06,08,22,35,8.10
2017,06,08,22,36,8.10
2017,06,08,22,37,9.60
2017,06,08,22,38,8.10
2017,06,08,22,39,8.10
2017,06,08,22,40,6.40
2017,06,08,22,41,3.20
2017,06,08,22,42,3.20
2017,06,08,22,43,4.80
2017,06,08,22,44,4.80
2017,06,08,22,45,3.20
2017,06,08,22,46,1.60
2017,06,08,22,47,1.60
2017,06,08,22,48,1.60
2017,06,08,22,49,1.60
2017,06,08,22,50,3.20
2017,06,08,22,51,4.80
2017,06,08,22,52,4.80
2017,06,08,22,53,4.80
2017,06,08,22,54,4.80
2017,06,08,22,55,4.80
2017,06,08,22,56,3.20
2017,06,08,22,57,3.20
2017,06,08,22,58,3.20
2017,06,08,22,59,3.20
2017,06,08,23,00,3.20
2017,06,08,23,01,3.20
2017,06,08,23,03,1.60
2017,06,08,23,04,3.20
2017,06,08,23,05,3.20
2017,06,08,23,06,3.20
2017,06,08,23,10,1.60
2017,06,08,23,12,6.40
2017,06,08,23,13,4.80
2017,06,08,23,14,3.20
2017,06,08,23,15,4.80
2017,06,08,23,16,4.80
2017,06,08,23,17,3.20
2017,06,08,23,18,3.20
2017,06,08,23,19,3.20
2017,06,08,23,20,3.20
2017,06,08,23,21,3.20
2017,06,08,23,23,3.20
2017,06,08,23,24,6.40
2017,06,08,23,25,4.80
2017,06,08,23,26,3.20
2017,06,08,23,28,4.80
2017,06,08,23,29,1.60
2017,06,08,23,30,4.80
2017,06,08,23,31,6.40
2017,06,08,23,32,8.10
2017,06,08,23,33,3.20
2017,06,08,23,34,3.20
2017,06,08,23,36,3.20
2017,06,08,23,37,3.20
2017,06,08,23,38,3.20
2017,06,08,23,39,4.80
2017,06,08,23,40,3.20
2017,06,08,23,41,4.80
2017,06,08,23,42,1.60
2017,06,08,23,43,3.20
2017,06,08,23,44,3.20
2017,06,08,23,45,3.20
2017,06,08,23,46,1.60
2017,06,08,23,48,1.60
2017,06,08,23,49,3.20
2017,06,08,23,50,3.20
2017,06,08,23,55,1.60
2017,06,08,23,56,3.20
2017,06,08,23,57,4.80
2017,06,08,23,58,3.20
